Location: Cactus School
(34.5700°N, 118.0931°W)
Time: 16:07:23
(UTC-08:00)

A-11 Canister half - Pass Details

Date: 27 November 2019
Orbit: 1515 x 1685 km, 47.2° (Epoch: 12 December)

Event Time Altitude Azimuth Distance (km) Brightness Sun altitude
Rises 18:59:55 0° 294° (WNW) 4,906 12.5 -27.9°
Reaches altitude 10° 19:03:21 10° 301° (WNW) 3,932 11.7 -28.6°
Maximum altitude 19:12:52 43° 11° (N) 2,240 9.6 -30.5°
Enters shadow 19:14:22 41° 31° (NNE) 2,298 9.6 -30.8°
